EW5819 Weather Reports


Display with metric or nautical units.
time (UTC)temp
F
wind
direction
speed
MPH
gust
MPH
rain 1hr
in
rain 24hr
in
rain mn
in
humidity
%
barometer
mb
20260505194021 79 151 3.0 11.0 0.00 0.00 0.00 40 1011.1
20260505193516 79 173 3.0 8.0 0.00 0.00 0.00 41 1011.3
20260505193041 79 217 3.0 13.0 0.00 0.00 0.00 39 1011.2
20260505192544 79 239 3.0 13.0 0.00 0.00 0.00 40 1011.4
20260505192051 79 258 2.0 10.0 0.00 0.00 0.00 38 1011.4
20260505191552 79 159 2.0 9.0 0.00 0.00 0.00 38 1011.4
20260505191058 79 129 2.0 9.0 0.00 0.00 0.00 38 1011.5
20260505190605 79 162 2.0 10.0 0.00 0.00 0.00 37 1011.4
20260505190111 78 119 3.0 10.0 0.00 0.00 0.00 36 1011.5
20260505185605 78 82 2.0 7.0 0.00 0.00 0.00 39 1011.7
20260505185110 78 229 3.0 7.0 0.00 0.00 0.00 39 1011.8
20260505184614 78 186 2.0 12.0 0.00 0.00 0.00 40 1012.0
20260505184121 78 239 3.0 9.0 0.00 0.00 0.00 39 1012.1
20260505183620 78 231 2.0 11.0 0.00 0.00 0.00 36 1012.3
20260505183002 78 207 3.0 11.0 0.00 0.00 0.00 38 1012.4
20260505182507 78 281 2.0 8.0 0.00 0.00 0.00 38 1012.4
20260505182013 78 180 3.0 7.0 0.00 0.00 0.00 38 1012.6
20260505181546 78 91 2.0 9.0 0.00 0.00 0.00 39 1012.7
20260505181038 78 67 3.0 9.0 0.00 0.00 0.00 37 1012.7
20260505180542 77 98 2.0 8.0 0.00 0.00 0.00 40 1012.7
20260505175553 77 233 2.0 10.0 0.00 0.00 0.00 38 1012.8
20260505175055 77 92 3.0 10.0 0.00 0.00 0.00 38 1012.9
20260505174602 77 160 3.0 9.0 0.00 0.00 0.00 40 1013.1
20260505174105 76 231 2.0 8.0 0.00 0.00 0.00 38 1013.1
20260505173615 76 182 1.0 7.0 0.00 0.00 0.00 40 1013.2
20260505173123 77 110 2.0 11.0 0.00 0.00 0.00 40 1013.2
20260505172624 76 122 2.0 11.0 0.00 0.00 0.00 41 1013.4
20260505172008 77 213 2.0 13.0 0.00 0.00 0.00 39 1013.5
20260505171518 76 269 2.0 13.0 0.00 0.00 0.00 39 1013.8
20260505171038 76 124 1.0 11.0 0.00 0.00 0.00 42 1013.8
20260505170541 77 89 2.0 10.0 0.00 0.00 0.00 40 1013.9
20260505170048 77 218 5.0 10.0 0.00 0.00 0.00 39 1013.9
20260505165556 76 135 3.0 10.0 0.00 0.00 0.00 40 1013.8
20260505165058 76 87 4.0 10.0 0.00 0.00 0.00 44 1013.8
20260505164601 76 175 3.0 10.0 0.00 0.00 0.00 42 1013.8
20260505164106 75 196 3.0 10.0 0.00 0.00 0.00 44 1013.8
20260505163608 75 224 2.0 7.0 0.00 0.00 0.00 47 1013.8
20260505163111 75 305 3.0 7.0 0.00 0.00 0.00 45 1013.8
20260505162614 76 217 2.0 8.0 0.00 0.00 0.00 46 1014.0
20260505162144 75 236 2.0 8.0 0.00 0.00 0.00 47 1014.0
20260505161647 75 289 2.0 7.0 0.00 0.00 0.00 49 1014.0
20260505161003 75 330 1.0 6.0 0.00 0.00 0.00 53 1014.0
20260505160516 75 94 2.0 9.0 0.00 0.00 0.00 53 1014.1
20260505153101 74 291 2.0 6.0 0.00 0.00 0.00 53 1013.9
20260505152606 73 209 1.0 7.0 0.00 0.00 0.00 53 1013.9
20260505152111 73 46 2.0 7.0 0.00 0.00 0.00 51 1014.0
20260505151637 72 321 1.0 6.0 0.00 0.00 0.00 52 1014.0
20260505151142 72 123 1.0 6.0 0.00 0.00 0.00 53 1014.0
20260505150503 72 75 2.0 6.0 0.00 0.00 0.00 53 1014.0
20260505140613 69 191 1.0 3.0 0.00 0.00 0.00 57 1014.0
20260505140117 68 250 0.0 3.0 0.00 0.00 0.00 56 1014.1
20260505124605 61 136 0.0 0.0 0.00 0.00 0.00 70 1013.8
20260505124110 60 136 0.0 0.0 0.00 0.00 0.00 75 1013.7
20260505123616 59 136 0.0 0.0 0.00 0.00 0.00 75 1013.7
20260505123117 58 136 0.0 0.0 0.00 0.00 0.00 77 1013.8
20260505122621 57 136 0.0 0.0 0.00 0.00 0.00 76 1013.7
20260505122003 57 136 0.0 0.0 0.00 0.00 0.00 80 1013.7
20260505121507 56 136 0.0 0.0 0.00 0.00 0.00 81 1013.7
20260505121008 55 136 0.0 0.0 0.00 0.00 0.00 81 1013.6
20260505120511 54 136 0.0 2.0 0.00 0.00 0.00 83 1013.5
20260505120016 53 113 0.0 2.0 0.00 0.00 0.00 83 1013.4
20260505115513 53 308 0.0 0.0 0.00 0.00 0.00 84 1013.5
20260505115017 52 308 0.0 0.0 0.00 0.00 0.00 84 1013.5
20260505114545 51 308 0.0 0.0 0.00 0.00 0.00 87 1013.3
20260505114045 50 308 0.0 0.0 0.00 0.00 0.00 89 1013.3
20260505113555 50 308 0.0 0.0 0.00 0.00 0.00 89 1013.3
20260505113055 49 308 0.0 0.0 0.00 0.00 0.00 90 1013.1
20260505112600 49 308 0.0 0.0 0.00 0.00 0.00 90 1012.9
20260505112100 49 308 0.0 0.0 0.00 0.00 0.00 90 1012.7
20260505111606 48 308 0.0 0.0 0.00 0.00 0.00 92 1012.6
20260505111111 47 308 0.0 0.0 0.00 0.00 0.00 92 1012.6
20260505110642 47 308 0.0 0.0 0.00 0.00 0.00 92 1012.6
20260505110119 46 309 0.0 0.0 0.00 0.00 0.00 93 1012.6
20260505102055 46 309 0.0 0.0 0.00 0.00 0.00 92 1012.5
20260505101606 46 309 0.0 0.0 0.00 0.00 0.00 92 1012.5
20260505101103 46 309 0.0 0.0 0.00 0.00 0.00 92 1012.6
20260505100610 46 309 0.0 0.0 0.00 0.00 0.00 92 1012.6
20260505100011 46 309 0.0 0.0 0.00 0.00 0.00 91 1012.7
20260505095515 46 309 0.0 0.0 0.00 0.00 0.00 91 1012.6
20260505095017 46 309 0.0 0.0 0.00 0.00 0.00 91 1012.6
20260505094520 47 309 0.0 0.0 0.00 0.00 0.00 92 1012.4
20260505094044 47 306 0.0 0.0 0.00 0.00 0.00 92 1012.4
20260505093600 47 306 0.0 0.0 0.00 0.00 0.00 92 1012.4
20260505093105 47 306 0.0 0.0 0.00 0.00 0.00 92 1012.4
20260505092610 47 306 0.0 0.0 0.00 0.00 0.00 92 1012.5
20260505092115 47 306 0.0 0.0 0.00 0.00 0.00 91 1012.5
20260505091602 47 306 0.0 0.0 0.00 0.00 0.00 91 1012.5
20260505091119 47 306 0.0 0.0 0.00 0.00 0.00 91 1012.5
20260505090501 47 306 0.0 0.0 0.00 0.00 0.00 90 1012.5
20260505090009 47 306 0.0 0.0 0.00 0.00 0.00 90 1012.5
20260505085535 47 306 0.0 0.0 0.00 0.00 0.00 90 1012.5
20260505085041 47 306 0.0 0.0 0.00 0.00 0.00 90 1012.6
20260505084559 48 306 0.0 0.0 0.00 0.00 0.00 90 1012.6
20260505084027 48 306 0.0 0.0 0.00 0.00 0.00 90 1012.5
20260505083556 48 306 0.0 0.0 0.00 0.00 0.00 90 1012.6
20260505083112 48 306 0.0 0.0 0.00 0.00 0.00 89 1012.5
20260505082607 48 306 0.0 0.0 0.00 0.00 0.00 89 1012.4
20260505082116 48 306 0.0 0.0 0.00 0.00 0.00 89 1012.4
20260505081625 48 306 0.0 0.0 0.00 0.00 0.00 89 1012.5
20260505081126 48 306 0.0 0.0 0.00 0.00 0.00 89 1012.4
20260505080510 48 306 0.0 0.0 0.00 0.00 0.00 88 1012.4
20260505080015 49 306 0.0 0.0 0.00 0.00 0.00 88 1012.4
20260505075541 49 306 0.0 0.0 0.00 0.00 0.00 87 1012.4
20260505075041 49 306 0.0 0.0 0.00 0.00 0.00 87 1012.4
20260505074549 50 306 0.0 0.0 0.00 0.00 0.00 86 1012.3
20260505074056 50 306 0.0 0.0 0.00 0.00 0.00 85 1012.3
20260505073602 50 306 0.0 0.0 0.00 0.00 0.00 85 1012.3
20260505073106 51 306 0.0 0.0 0.00 0.00 0.00 85 1012.3
20260505072612 51 306 0.0 0.0 0.00 0.00 0.00 85 1012.3
20260505072141 51 304 0.0 0.0 0.00 0.00 0.00 86 1012.4
20260505071644 51 304 0.0 0.0 0.00 0.00 0.00 86 1012.4
20260505071004 51 304 0.0 0.0 0.00 0.00 0.00 85 1012.4
20260505070510 51 304 0.0 0.0 0.00 0.00 0.00 84 1012.4
20260505070014 51 304 0.0 0.0 0.00 0.00 0.00 84 1012.4
20260505065518 52 304 0.0 0.0 0.00 0.00 0.00 85 1012.5
20260505065023 52 304 0.0 0.0 0.00 0.00 0.00 84 1012.5
20260505064625 52 304 0.0 0.0 0.00 0.00 0.00 84 1012.5
20260505064053 52 304 0.0 0.0 0.00 0.00 0.00 84 1012.5
20260505063558 52 304 0.0 0.0 0.00 0.00 0.00 83 1012.5
20260505063107 52 304 0.0 0.0 0.00 0.00 0.00 83 1012.5
20260505062603 52 304 0.0 0.0 0.00 0.00 0.00 84 1012.5
20260505062107 52 304 0.0 0.0 0.00 0.00 0.00 83 1012.5
20260505061612 52 319 0.0 0.0 0.00 0.00 0.00 83 1012.5
20260505061120 53 321 0.0 1.0 0.00 0.00 0.00 83 1012.5
20260505060619 53 321 0.0 1.0 0.00 0.00 0.00 83 1012.5
20260505060147 53 316 0.0 2.0 0.00 0.00 0.00 83 1012.5
20260505055643 53 339 0.0 2.0 0.00 0.00 0.00 84 1012.5
20260505055120 53 137 0.0 0.0 0.00 0.00 0.00 84 1012.4
20260505054510 53 137 0.0 0.0 0.00 0.00 0.00 83 1012.4
20260505054011 53 137 0.0 0.0 0.00 0.00 0.00 84 1012.4
20260505053539 53 137 0.0 0.0 0.00 0.00 0.00 84 1012.4
20260505053046 53 137 0.0 0.0 0.00 0.00 0.00 83 1012.4
20260505052551 53 137 0.0 0.0 0.00 0.00 0.00 82 1012.4
20260505052055 53 137 0.0 0.0 0.00 0.00 0.00 83 1012.3
20260505051602 53 137 0.0 0.0 0.00 0.00 0.00 82 1012.3
20260505051108 53 137 0.0 0.0 0.00 0.00 0.00 82 1012.3
20260505050612 53 137 0.0 0.0 0.00 0.00 0.00 82 1012.3
20260505050138 53 137 0.0 0.0 0.00 0.00 0.00 82 1012.3
20260505041603 55 137 0.0 0.0 0.00 0.00 0.00 80 1012.4
20260505041102 55 137 0.0 0.0 0.00 0.00 0.00 79 1012.3
20260505040647 55 137 0.0 0.0 0.00 0.00 0.00 79 1012.4
20260505040005 55 137 0.0 0.0 0.00 0.00 0.00 79 1012.4
20260505035507 55 137 0.0 0.0 0.00 0.00 0.00 79 1012.4
20260505035038 56 137 0.0 0.0 0.00 0.00 0.00 78 1012.3
20260505034603 56 137 0.0 0.0 0.00 0.00 0.00 78 1012.3
20260505034047 56 137 0.0 0.0 0.00 0.00 0.00 77 1012.3
20260505033555 56 137 0.0 0.0 0.00 0.00 0.00 76 1012.2
20260505033101 57 137 0.0 0.0 0.00 0.00 0.00 75 1012.3
20260505032601 57 137 0.0 0.0 0.00 0.00 0.00 75 1012.3
20260505032102 57 137 0.0 0.0 0.00 0.00 0.00 74 1012.3
20260505031608 57 137 0.0 0.0 0.00 0.00 0.00 74 1012.4
20260505031138 58 137 0.0 0.0 0.00 0.00 0.00 73 1012.4
20260505030647 58 137 0.0 0.0 0.00 0.00 0.00 72 1012.5
20260505030022 59 137 0.0 0.0 0.00 0.00 0.00 71 1012.5
20260505025503 59 137 0.0 0.0 0.00 0.00 0.00 69 1012.5
20260505025112 59 137 0.0 0.0 0.00 0.00 0.00 68 1012.5
20260505024639 59 137 0.0 0.0 0.00 0.00 0.00 67 1012.5
20260505024001 60 137 0.0 0.0 0.00 0.00 0.00 67 1012.6
20260505023504 60 137 0.0 0.0 0.00 0.00 0.00 66 1012.6
20260505023008 61 137 0.0 0.0 0.00 0.00 0.00 65 1012.6
20260505022509 61 137 0.0 0.0 0.00 0.00 0.00 63 1012.5
20260505022017 62 137 0.0 0.0 0.00 0.00 0.00 62 1012.5
20260505021546 62 137 0.0 0.0 0.00 0.00 0.00 61 1012.5
20260505021052 62 137 0.0 0.0 0.00 0.00 0.00 61 1012.4
20260505020554 63 137 0.0 0.0 0.00 0.00 0.00 61 1012.4
20260505020109 63 137 0.0 0.0 0.00 0.00 0.00 60 1012.4
20260505015607 63 137 0.0 0.0 0.00 0.00 0.00 60 1012.4
20260505015115 63 137 0.0 0.0 0.00 0.00 0.00 59 1012.4
20260505014640 64 137 0.0 0.0 0.00 0.00 0.00 58 1012.3
20260505014144 64 137 0.0 1.0 0.00 0.00 0.00 57 1012.2
20260505013513 64 168 0.0 2.0 0.00 0.00 0.00 56 1012.2
20260505013042 65 245 0.0 2.0 0.00 0.00 0.00 56 1012.2
20260505012548 65 202 0.0 0.0 0.00 0.00 0.00 56 1012.2
20260505012052 66 202 0.0 0.0 0.00 0.00 0.00 55 1012.1
20260505011559 66 203 0.0 2.0 0.00 0.00 0.00 54 1012.1
20260505011058 67 203 0.0 2.0 0.00 0.00 0.00 53 1012.1
20260505010601 67 176 0.0 1.0 0.00 0.00 0.00 53 1012.1
20260505010111 68 134 0.0 0.0 0.00 0.00 0.00 52 1012.0
20260505005603 68 134 0.0 3.0 0.00 0.00 0.00 51 1012.0
20260505005110 68 117 0.0 3.0 0.00 0.00 0.00 51 1012.0
20260505004633 69 168 0.0 1.0 0.00 0.00 0.00 50 1011.9
20260505004121 69 205 0.0 4.0 0.00 0.00 0.00 49 1011.9
20260505003505 70 203 0.0 5.0 0.00 0.00 0.00 49 1011.9
20260505003013 70 144 0.0 5.0 0.00 0.00 0.00 49 1011.8
20260505002541 70 229 0.0 5.0 0.00 0.00 0.00 48 1011.7
20260505002046 71 179 0.0 4.0 0.00 0.00 0.00 48 1011.7
20260505001550 71 49 0.0 2.0 0.00 0.00 0.00 48 1011.6
20260505001054 72 169 0.0 3.0 0.00 0.00 0.00 47 1011.6
20260505000601 72 138 0.0 6.0 0.00 0.00 0.00 47 1011.5
20260505000114 72 121 2.0 7.0 0.00 0.00 0.00 46 1011.5
20260504235613 73 143 2.0 7.0 0.00 0.00 0.00 46 1011.5
20260504235119 73 140 3.0 9.0 0.00 0.00 0.00 46 1011.6
20260504234609 74 181 2.0 16.0 0.00 0.00 0.00 45 1011.5
20260504234115 74 212 4.0 16.0 0.00 0.00 0.00 45 1011.5
20260504233621 75 164 1.0 6.0 0.00 0.00 0.00 44 1011.5
20260504233109 75 166 3.0 6.0 0.00 0.00 0.00 44 1011.6
20260504232609 75 210 2.0 7.0 0.00 0.00 0.00 44 1011.7
20260504232109 76 144 3.0 7.0 0.00 0.00 0.00 45 1011.6
20260504231627 76 274 3.0 7.0 0.00 0.00 0.00 44 1011.6
20260504231116 76 83 2.0 6.0 0.00 0.00 0.00 44 1011.5
20260504230615 76 154 1.0 7.0 0.00 0.00 0.00 45 1011.5
20260504230143 76 276 3.0 7.0 0.00 0.00 0.00 44 1011.5
20260504225502 76 136 2.0 8.0 0.00 0.00 0.00 45 1011.5
20260504225004 76 211 3.0 8.0 0.00 0.00 0.00 44 1011.5
20260504224508 77 298 2.0 6.0 0.00 0.00 0.00 43 1011.4
20260504224013 77 300 1.0 11.0 0.00 0.00 0.00 42 1011.5
20260504223539 77 291 2.0 11.0 0.00 0.00 0.00 43 1011.5
20260504223047 77 91 2.0 6.0 0.00 0.00 0.00 42 1011.5
20260504222552 77 178 2.0 6.0 0.00 0.00 0.00 42 1011.5
20260504222058 77 178 1.0 8.0 0.00 0.00 0.00 42 1011.5
20260504221647 77 198 2.0 8.0 0.00 0.00 0.00 42 1011.7
20260504221106 77 155 1.0 8.0 0.00 0.00 0.00 40 1011.6
20260504220613 77 130 2.0 8.0 0.00 0.00 0.00 42 1011.6
20260504220111 78 186 1.0 6.0 0.00 0.00 0.00 41 1011.6
20260504215615 78 148 0.0 7.0 0.00 0.00 0.00 42 1011.6
20260504215119 78 187 1.0 7.0 0.00 0.00 0.00 40 1011.7
20260504214625 77 13 2.0 7.0 0.00 0.00 0.00 42 1011.6
20260504214007 77 312 2.0 6.0 0.00 0.00 0.00 38 1011.7
20260504213512 78 190 2.0 6.0 0.00 0.00 0.00 41 1011.6
20260504213041 78 196 2.0 11.0 0.00 0.00 0.00 41 1011.6
20260504212541 78 225 3.0 11.0 0.00 0.00 0.00 41 1011.7
20260504212018 78 139 2.0 8.0 0.00 0.00 0.00 42 1011.7
20260504211525 78 252 3.0 8.0 0.00 0.00 0.00 42 1011.7
20260504211043 79 141 2.0 6.0 0.00 0.00 0.00 43 1011.7
20260504210548 79 139 1.0 5.0 0.00 0.00 0.00 42 1011.8
20260504210051 79 8 1.0 6.0 0.00 0.00 0.00 42 1011.7
20260504205551 79 169 1.0 6.0 0.00 0.00 0.00 42 1011.8
20260504205103 79 237 2.0 6.0 0.00 0.00 0.00 41 1011.8
20260504204605 79 112 2.0 6.0 0.00 0.00 0.00 42 1011.9
20260504204108 79 190 2.0 6.0 0.00 0.00 0.00 40 1012.0
20260504203614 79 151 1.0 8.0 0.00 0.00 0.00 43 1012.0
20260504203140 79 258 1.0 4.0 0.00 0.00 0.00 41 1011.9
20260504202501 79 320 1.0 7.0 0.00 0.00 0.00 42 1012.0
20260504202006 79 156 2.0 7.0 0.00 0.00 0.00 41 1012.1
20260504201510 79 216 2.0 7.0 0.00 0.00 0.00 40 1012.1
20260504201015 79 168 2.0 7.0 0.00 0.00 0.00 44 1012.1
20260504200510 79 203 2.0 8.0 0.00 0.00 0.00 43 1012.2
20260504200037 79 93 1.0 8.0 0.00 0.00 0.00 44 1012.3
20260504195541 79 164 0.0 4.0 0.00 0.00 0.00 47 1012.4
20260504195043 78 300 1.0 5.0 0.00 0.00 0.00 45 1012.5
20260504194553 78 296 2.0 8.0 0.00 0.00 0.00 45 1012.6